Regional Weather Roundup
Issued by NWS

Home | Current Version | Previous Version | Graphics & Text | Print | Product List | Glossary On
Versions: 1 2 3 4 5 6 7 8 9 10 11 12 13 14 15 16 17 18 19 20 21 22 23 24 25 26 27 28 29 30 31 32 33 34 35 36 37 38 39 40 41 42 43 44 45 46 47 48 49 50
000
ASUS43 KLMK 190810
RWRKY
KENTUCKY REGIONAL WEATHER ROUNDUP
NATIONAL WEATHER SERVICE LOUISVILLE KY
400 AM EDT SUN APR 19 2015

NOTE "FAIR" INDICATES FEW OR NO CLOUDS BELOW 12,000 FEET
WITH NO SIGNIFICANT WEATHER AND/OR OBSTRUCTIONS TO VISIBILITY.

KYZ001>023-026-027-061>063-070>075-190900-
WESTERN AND SOUTH CENTRAL KENTUCKY

CITY           SKY/WX    TMP DP  RH WIND       PRES   REMARKS
PADUCAH        LGT RAIN  64  62  93 E7        29.74F
HENDERSON      CLOUDY    64  52  63 CALM      29.77F
OWENSBORO      LGT RAIN  67  53  60 E5        29.78F
HOPKINSVILLE   LGT RAIN  64  63  94 SE2       29.76F
BOWLING GREEN  CLOUDY    67  60  78 SE6       29.79F
GLASGOW        CLOUDY    68  57  69 SE5       29.81F
$$

KYZ024-025-028>034-038-045-046-053-190900-
NORTH CENTRAL KENTUCKY

CITY           SKY/WX    TMP DP  RH WIND       PRES   REMARKS
LOUISVILLE/SDF CLOUDY    70  46  42 E13       29.81F
LOUISVILLE/LOU CLOUDY    70  45  40 E9G17     29.82F
FORT KNOX      CLOUDY    66  49  53 E8        29.80F
$$

KYZ035>037-039>044-047>052-055>060-089>105-190900-
NORTHEAST KENTUCKY

CITY           SKY/WX    TMP DP  RH WIND       PRES   REMARKS
LEXINGTON      CLOUDY    66  46  48 E8        29.86F
COVINGTON      CLOUDY    65  44  46 E14       29.89F
FRANKFORT      LGT RAIN  63  49  60 NE6       29.85F
$$

KYZ054-064>069-076>088-106>120-190900-
SOUTHEAST KENTUCKY

CITY           SKY/WX    TMP DP  RH WIND       PRES   REMARKS
JACKSON        CLOUDY    66  44  45 VRB6      29.89F
LONDON         CLOUDY    66  55  67 CALM      29.88F
SOMERSET       LGT RAIN  61  57  88 CALM      29.88F
MIDDLESBORO    CLOUDY    63  60  91 CALM      29.89F
MONTICELLO     CLOUDY    65  62  90 E5        29.87F
$$




USA.gov is the U.S. government's official web portal to all federal, state and local government web resources and services.